Location: Unnamed
(54.5186°N, 36.2255°E)
Time: 21:12:55
(UTC+03:00)

ISS - Pass Details

Date: 18 February 2026
Orbit: 416 x 427 km, 51.6° (Epoch: 6 March)

Event Time Altitude Azimuth Distance (km) Brightness Sun altitude
Exits shadow 05:21:28 18° 157° (SSE) 1,096 -1.6 -22.1°
Maximum altitude 05:21:48 18° 148° (SSE) 1,087 -1.5 -22.1°
Drops below altitude 10° 05:24:11 10° 103° (ESE) 1,495 0.0 -21.7°
Sets 05:26:42 0° 84° (E) 2,361 1.6 -21.4°
